GAOFEN-13 02

Last updated on Thu Sep 10 2026 00:03:01 GMT+0000 (Coordinated Universal Time)

1 55912U 23036A 26252.48419142 -.00000239 00000+0 00000+0 0 9999 2 55912 1.0020 11.5850 0003838 305.0506 354.4248 1.00268611 12938
UTC large
Height (km)
Speed (km/s)
/
Latitude / Longitude
Inclination (degrees)
Orbital Period (minutes)
Azimuth
Elevation
Range (km)
Doppler Factor

Next 0 passes for location: London (51.5072 / 0.1276)

No passes found over London.
GAOFEN-13 02